Temp
75 75 75 75 75 76 75 75 75 75 75 75 75 75 75 76 77 77 77 77 77 77 77 76 76 76 78 75 76 75 76 76 76 74 74 74 74 74 77 76 75 74
75 75 77 76 75 76 75 76 76 76 75 75 76 75 76 76 77 77 77 77 77 77 77 77 76 76 76 76 75 75 75 75 75 78 75 75 74 74 75 75 75 74
75 75 75 75 75 75 77 76 76 76 76 77 77 76 77 77 77 76 77 77 77 77 77 76 76 76 76 76 75 76 76 74 75 75 76 74 74 74 74 75 75 75
75 75 76 76 76 76 77 76 76 76 76 76 76 78 78 79 78 77 76 79 76 77 77 76 77 76 76 76 76 75 75 74 75 75 75 75 75 75 75 74 75 75
77 75 75 76 76 76 76 76 77 76 77 77 78 77 77 77 77 77 76 77 76 76 76 77 76 77 76 76 75 75 75 75 75 74 74 74 74 75 75 75 74 74
76 76 75 76 76 76 76 77 77 77 77 77 78 78 78 77 77 77 77 77 77 77 77 76 77 77 77 76 76 76 76 76 76 74 74 74 75 75 77 76 75 74
77 76 76 76 76 76 77 77 77 78 78 79 78 77 78 78 77 77 77 77 77 77 77 76 76 77 77 76 76 75 75 76 75 74 74 74 74 75 76 76 75 74
77 77 77 77 77 76 77 77 77 77 78 77 77 78 78 79 78 78 78 78 78 77 77 77 77 76 77 76 76 75 75 77 76 75 74 74 73 74 75 76 75 74
78 77 77 77 77 77 77 78 77 77 77 77 78 78 78 79 79 79 78 77 77 77 76 77 76 76 76 76 76 76 75 76 77 76 75 75 74 74 75 75 74 74
76 77 78 78 78 78 78 79 79 78 77 78 78 78 78 78 78 79 78 77 77 77 76 76 76 76 76 76 76 76 76 76 76 76 76 76 75 75 75 75 75 74
77 76 77 77 78 79 79 80 80 80 79 79 79 78 79 78 77 78 77 77 78 77 77 76 76 76 76 76 76 76 76 76 76 76 76 76 76 76 78 76 75 75
74 75 76 76 77 78 79 80 80 80 80 79 79 79 78 79 78 78 78 77 77 78 78 77 77 76 76 77 77 77 76 77 77 76 76 76 76 76 76 76 76 76
72 73 73 74 76 76 77 77 79 80 80 80 80 80 79 79 79 77 77 78 78 78 78 78 77 77 76 76 77 77 77 76 77 76 76 76 76 76 77 77 77 77
72 72 72 72 73 73 74 75 76 76 76 75 76 78 80 79 79 78 78 78 78 78 78 78 77 77 76 76 77 77 77 77 76 77 76 76 76 76 77 77 77 78
72 72 73 73 74 73 73 74 73 73 73 73 73 74 78 79 80 80 79 78 78 78 78 79 79 78 78 77 77 76 77 77 77 77 77 76 76 76 76 76 77 78
71 72 73 72 73 73 73 73 73 72 73 72 72 72 72 73 75 77 79 79 78 78 78 79 79 80 79 75 76 79 77 78 77 76 76 76 76 75 76 76 77 77
72 72 72 72 72 72 73 73 74 74 73 72 71 72 71 73 74 75 78 79 79 79 78 79 81 82 76 70 70 72 79 77 77 76 75 75 75 75 75 76 76 76
71 71 71 72 72 72 73 73 74 74 73 72 72 72 72 73 73 73 74 77 79 79 79 80 80 78 71 69 68 68 72 78 77 77 77 75 75 75 76 76 76 76
71 71 71 71 72 72 73 72 73 72 72 72 72 72 72 72 72 72 73 73 76 76 78 79 80 76 70 68 67 66 66 72 78 77 77 77 76 75 75 75 75 75
71 71 72 71 72 72 72 72 72 71 72 72 72 72 71 71 72 71 71 71 72 73 74 76 78 77 70 67 66 65 65 68 76 78 78 77 77 76 77 76 75 75
70 70 70 70 71 71 71 71 71 71 72 73 73 72 71 71 71 71 72 73 73 73 74 75 77 62 61 63 63 63 64 66 74 76 77 77 77 76 76 77 76 76
68 68 69 70 71 71 71 70 70 70 70 72 72 72 72 72 73 73 72 72 73 73 73 73 73 60 60 60 61 61 62 69 71 72 73 75 76 76 77 76 76 76
68 68 68 68 69 70 69 70 70 69 70 71 70 71 72 72 73 73 72 72 73 73 73 72 73 63 59 58 59 59 64 69 69 71 71 72 74 74 75 75 75 75
67 68 68 68 68 69 69 69 69 69 69 71 71 71 71 72 72 72 72 72 72 72 75 73 73 67 59 59 59 60 66 70 69 69 70 70 71 72 73 73 75 79
67 67 67 67 67 67 68 69 69 69 71 70 70 71 71 72 72 71 72 72 73 74 76 74 73 70 61 58 58 58 63 69 69 69 70 70 71 72 73 73 73 75
67 67 67 67 66 67 68 68 69 69 69 70 70 71 70 70 72 72 71 71 72 73 74 74 72 72 70 60 57 57 57 66 69 68 69 70 70 71 71 72 72 73
MSLP
1019.51 1019.67 1019.87 1020.07 1020.19 1020.23 1020.43 1020.67 1020.75 1020.87 1020.91 1020.99 1021.23 1021.23 1021.23 1021.03 1020.95 1021.07 1021.19 1021.23 1021.31 1021.39 1021.43 1021.43 1021.43 1021.51 1021.55 1021.59 1021.67 1021.75 1021.87 1021.95 1021.99 1021.99 1022.15 1022.23 1022.35 1022.43 1022.51 1022.55 1022.55 1022.67
1019.43 1019.47 1019.55 1019.75 1019.95 1020.03 1020.11 1020.15 1020.39 1020.55 1020.67 1020.71 1020.75 1020.83 1020.87 1020.87 1020.87 1020.91 1021.07 1021.19 1021.23 1021.31 1021.27 1021.35 1021.39 1021.47 1021.55 1021.63 1021.67 1021.79 1021.87 1021.91 1022.03 1021.83 1022.11 1022.19 1022.27 1022.31 1022.39 1022.39 1022.47 1022.47
1019.31 1019.43 1019.55 1019.79 1019.95 1019.99 1019.99 1019.99 1020.11 1020.19 1020.35 1020.35 1020.39 1020.55 1020.67 1020.63 1020.79 1020.79 1020.87 1020.99 1021.15 1021.19 1021.27 1021.27 1021.35 1021.43 1021.47 1021.55 1021.59 1021.75 1021.83 1021.91 1022.03 1021.87 1021.99 1022.11 1022.07 1022.23 1022.23 1022.23 1022.35 1022.39
1019.07 1019.15 1019.31 1019.47 1019.59 1019.79 1019.79 1019.99 1020.11 1020.15 1020.15 1020.35 1020.39 1020.31 1020.39 1020.47 1020.55 1020.75 1020.83 1020.87 1021.03 1021.11 1021.15 1021.23 1021.31 1021.35 1021.43 1021.51 1021.59 1021.75 1021.75 1021.79 1021.75 1021.83 1021.99 1021.99 1021.99 1022.03 1022.11 1022.11 1022.19 1022.23
1018.79 1018.99 1019.11 1019.19 1019.31 1019.43 1019.59 1019.87 1020.03 1020.11 1020.15 1020.07 1020.03 1020.15 1020.31 1020.43 1020.59 1020.71 1020.79 1020.87 1020.91 1021.03 1021.11 1021.19 1021.19 1021.27 1021.31 1021.47 1021.55 1021.79 1021.75 1021.79 1021.71 1021.83 1021.99 1022.11 1021.95 1021.99 1021.99 1022.03 1022.15 1022.27
1018.63 1018.71 1018.87 1019.03 1019.11 1019.35 1019.59 1019.67 1019.71 1019.87 1019.95 1020.07 1020.03 1019.95 1020.11 1020.19 1020.39 1020.55 1020.67 1020.83 1020.83 1020.91 1020.99 1021.03 1021.11 1021.15 1021.19 1021.39 1021.51 1021.63 1021.71 1021.79 1021.67 1021.75 1021.95 1022.07 1021.99 1021.87 1021.91 1021.99 1022.11 1022.19
1018.59 1018.63 1018.79 1018.83 1018.99 1019.11 1019.35 1019.39 1019.43 1019.55 1019.67 1019.67 1019.75 1019.99 1019.95 1020.19 1020.35 1020.43 1020.51 1020.59 1020.71 1020.79 1020.83 1020.91 1020.99 1021.07 1021.11 1021.27 1021.47 1021.63 1021.59 1021.59 1021.55 1021.67 1021.91 1021.95 1021.95 1021.95 1021.83 1021.95 1022.07 1022.19
1018.31 1018.27 1018.39 1018.59 1018.83 1018.99 1019.19 1019.27 1019.31 1019.43 1019.43 1019.59 1019.87 1019.79 1019.79 1019.99 1020.11 1020.23 1020.31 1020.43 1020.63 1020.71 1020.75 1020.79 1020.83 1020.87 1020.99 1021.15 1021.43 1021.59 1021.59 1021.51 1021.59 1021.67 1021.87 1021.91 1021.95 1022.07 1021.91 1021.87 1021.95 1022.19
1018.07 1018.23 1018.31 1018.55 1018.75 1018.87 1019.07 1019.11 1019.15 1019.19 1019.23 1019.59 1019.71 1019.71 1019.67 1019.71 1019.87 1019.99 1020.15 1020.31 1020.51 1020.59 1020.71 1020.79 1020.79 1020.83 1020.87 1021.03 1021.27 1021.39 1021.51 1021.55 1021.51 1021.63 1021.79 1021.91 1021.99 1021.95 1021.87 1021.79 1021.99 1022.11
1018.03 1018.11 1018.31 1018.47 1018.71 1018.67 1018.83 1018.79 1018.83 1018.95 1019.03 1019.27 1019.39 1019.47 1019.67 1019.59 1019.59 1019.75 1019.95 1020.19 1020.43 1020.55 1020.67 1020.71 1020.79 1020.79 1020.83 1020.91 1021.03 1021.15 1021.31 1021.43 1021.47 1021.51 1021.59 1021.63 1021.75 1021.79 1021.75 1021.83 1021.95 1022.07
1017.91 1017.95 1018.11 1018.19 1018.31 1018.35 1018.47 1018.51 1018.55 1018.67 1018.75 1018.95 1019.11 1019.35 1019.35 1019.47 1019.55 1019.51 1019.79 1020.03 1020.27 1020.39 1020.47 1020.59 1020.63 1020.67 1020.79 1020.87 1020.87 1020.91 1021.03 1021.15 1021.27 1021.39 1021.47 1021.47 1021.51 1021.55 1021.55 1021.67 1021.79 1021.91
1017.67 1017.71 1017.83 1017.91 1017.99 1018.11 1018.19 1018.23 1018.31 1018.39 1018.47 1018.55 1018.71 1019.03 1019.11 1019.19 1019.31 1019.39 1019.51 1019.71 1019.83 1019.91 1020.03 1020.15 1020.23 1020.35 1020.51 1020.59 1020.67 1020.79 1020.91 1020.99 1021.03 1021.19 1021.27 1021.31 1021.35 1021.35 1021.43 1021.47 1021.63 1021.67
1017.51 1017.51 1017.55 1017.71 1017.83 1017.91 1017.99 1018.07 1018.11 1018.11 1018.15 1018.31 1018.31 1018.55 1018.83 1018.99 1019.03 1019.15 1019.11 1019.23 1019.39 1019.51 1019.71 1019.83 1019.91 1020.03 1020.19 1020.31 1020.43 1020.59 1020.75 1020.95 1021.03 1021.07 1021.15 1021.23 1021.23 1021.23 1021.19 1021.23 1021.27 1021.35
1017.39 1017.47 1017.59 1017.63 1017.67 1017.75 1017.83 1017.91 1017.95 1017.91 1017.95 1017.95 1018.03 1018.27 1018.39 1018.51 1018.71 1018.87 1018.87 1018.91 1018.99 1019.15 1019.27 1019.39 1019.63 1019.83 1019.95 1020.07 1020.19 1020.35 1020.59 1020.75 1020.87 1020.95 1021.03 1021.07 1021.07 1021.03 1021.03 1021.07 1021.07 1021.03
1017.35 1017.43 1017.39 1017.51 1017.59 1017.71 1017.79 1017.87 1017.91 1017.87 1017.83 1017.87 1017.91 1018.03 1018.07 1018.11 1018.15 1018.35 1018.63 1018.87 1018.83 1018.91 1019.07 1019.15 1019.43 1019.63 1019.67 1019.83 1020.07 1020.19 1020.27 1020.47 1020.59 1020.71 1020.79 1020.87 1020.87 1020.83 1020.75 1020.79 1020.79 1020.79
1017.47 1017.51 1017.51 1017.55 1017.63 1017.63 1017.67 1017.71 1017.83 1017.91 1017.91 1017.95 1017.95 1017.91 1017.95 1017.95 1018.03 1018.15 1018.35 1018.59 1018.83 1018.91 1018.95 1019.11 1019.27 1019.23 1019.27 1019.35 1019.51 1019.75 1020.03 1020.15 1020.31 1020.43 1020.55 1020.63 1020.75 1020.79 1020.71 1020.59 1020.55 1020.51
1017.79 1017.75 1017.71 1017.75 1017.67 1017.59 1017.55 1017.67 1017.71 1017.75 1017.83 1017.91 1017.91 1017.87 1017.87 1017.87 1017.91 1018.15 1018.27 1018.31 1018.47 1018.67 1018.91 1018.95 1018.95 1018.91 1018.91 1019.11 1019.27 1019.39 1019.59 1019.95 1020.19 1020.35 1020.43 1020.55 1020.63 1020.71 1020.71 1020.55 1020.39 1020.31
1018.51 1018.23 1018.11 1017.99 1017.87 1017.83 1017.71 1017.59 1017.55 1017.63 1017.79 1017.83 1017.87 1017.95 1017.87 1017.79 1017.87 1017.99 1018.03 1018.11 1018.23 1018.39 1018.63 1018.71 1018.71 1018.59 1018.71 1018.91 1019.07 1019.23 1019.43 1019.59 1019.79 1020.07 1020.19 1020.35 1020.39 1020.43 1020.39 1020.35 1020.31 1020.23
1018.43 1018.67 1018.79 1018.43 1018.19 1017.99 1017.87 1017.79 1017.75 1017.75 1017.79 1017.83 1017.91 1017.87 1017.91 1017.95 1017.91 1017.91 1017.99 1017.99 1018.11 1018.31 1018.43 1018.39 1018.43 1018.31 1018.55 1018.75 1018.95 1019.15 1019.35 1019.55 1019.63 1019.71 1019.91 1020.03 1020.07 1020.11 1020.11 1020.15 1020.15 1020.19
1018.67 1018.75 1018.71 1018.59 1018.35 1018.11 1018.03 1017.95 1017.95 1017.99 1017.91 1017.87 1017.91 1017.99 1018.15 1018.23 1018.27 1018.27 1018.27 1018.31 1018.31 1018.43 1018.43 1018.31 1018.27 1018.15 1018.31 1018.51 1018.67 1018.83 1018.99 1019.35 1019.43 1019.47 1019.55 1019.63 1019.71 1019.75 1019.83 1019.91 1019.91 1020.03
1018.91 1018.75 1018.75 1018.79 1018.71 1018.67 1018.51 1018.47 1018.31 1018.19 1018.15 1018.19 1018.27 1018.43 1018.51 1018.55 1018.55 1018.51 1018.47 1018.43 1018.39 1018.35 1018.47 1018.59 1018.59 1018.71 1018.71 1018.67 1018.67 1018.75 1018.87 1019.23 1019.27 1019.31 1019.31 1019.35 1019.31 1019.31 1019.31 1019.35 1019.39 1019.47
1019.11 1019.07 1018.95 1018.87 1018.91 1019.03 1019.15 1019.07 1018.95 1018.79 1018.71 1018.55 1018.59 1018.79 1018.79 1018.71 1018.67 1018.59 1018.63 1018.47 1018.27 1018.19 1018.35 1018.47 1018.47 1018.55 1018.51 1018.51 1018.55 1018.63 1018.79 1019.03 1019.19 1019.31 1019.35 1019.27 1019.19 1019.07 1019.03 1018.99 1018.99 1019.07
1019.15 1019.07 1019.15 1019.19 1019.15 1019.23 1019.39 1019.43 1019.39 1019.19 1018.83 1018.63 1018.95 1019.23 1019.35 1019.39 1019.47 1019.39 1019.03 1018.75 1018.59 1018.51 1018.59 1018.63 1018.63 1018.67 1018.67 1018.71 1018.71 1018.71 1018.79 1018.95 1019.07 1019.19 1019.27 1019.31 1019.19 1019.03 1018.99 1018.95 1018.91 1018.91
1019.23 1019.07 1019.03 1019.31 1019.47 1019.59 1019.51 1019.47 1019.35 1019.19 1019.11 1018.87 1018.99 1019.19 1019.35 1019.51 1019.59 1019.51 1019.23 1019.23 1019.55 1019.35 1018.79 1018.71 1018.63 1018.55 1018.55 1018.59 1018.71 1018.79 1018.91 1019.03 1019.11 1019.19 1019.19 1019.23 1019.19 1019.07 1018.99 1018.91 1018.79 1018.67
1019.51 1019.47 1019.71 1019.99 1020.03 1019.99 1019.63 1019.47 1019.35 1019.27 1019.07 1018.95 1018.95 1018.99 1019.11 1019.15 1019.19 1019.19 1019.03 1019.11 1019.27 1019.27 1018.87 1018.87 1018.87 1018.71 1018.75 1018.83 1018.87 1018.91 1018.95 1018.95 1019.07 1019.27 1019.39 1019.27 1019.27 1019.15 1018.99 1018.99 1018.95 1018.87
1019.55 1019.63 1019.71 1019.91 1019.99 1019.87 1019.59 1019.39 1019.23 1019.19 1019.23 1019.19 1019.11 1019.07 1019.19 1019.23 1019.27 1019.27 1019.27 1019.27 1019.31 1019.39 1019.15 1018.95 1018.91 1018.91 1018.95 1019.11 1019.15 1019.19 1019.27 1019.35 1019.39 1019.63 1019.71 1019.59 1019.47 1019.47 1019.47 1019.23 1019.07 1018.99
Wind_Speed
6 6 7 6 6 6 7 6 6 6 6 6 6 6 6 6 4 4 5 4 4 4 4 4 3 3 3 2 2 2 3 4 3 2 2 2 2 1 2 1 1 0
6 6 5 5 5 4 5 6 7 7 7 6 6 5 5 4 4 5 5 4 4 4 4 4 3 3 3 3 2 3 3 3 4 2 3 2 2 1 2 2 1 0
6 5 6 6 6 6 6 5 5 6 6 7 5 5 5 4 4 4 4 5 5 5 4 4 4 4 4 3 3 3 3 3 4 2 1 3 2 2 3 2 1 1
6 6 6 6 5 6 5 5 4 4 4 4 6 6 5 5 5 5 5 5 5 5 4 4 5 4 3 3 3 3 3 3 2 1 1 1 2 2 3 2 1 1
7 6 5 5 5 5 5 6 6 6 6 6 5 5 5 4 5 5 5 5 5 5 5 5 4 4 4 3 3 3 3 3 2 1 1 2 2 1 3 2 3 3
5 5 5 5 5 6 6 7 7 7 6 5 7 5 5 5 5 5 5 5 5 5 5 5 5 5 4 4 4 4 4 4 3 2 2 2 3 2 2 2 3 4
7 6 6 6 6 6 7 7 7 6 6 7 4 5 5 5 5 6 6 6 6 5 6 6 6 6 5 4 4 4 4 4 3 3 3 3 3 3 2 2 3 3
7 7 7 6 7 6 6 6 6 6 6 4 5 6 5 6 6 5 5 6 6 6 6 6 6 6 5 5 5 5 5 4 4 4 3 3 3 3 3 3 2 3
7 7 6 6 7 6 6 6 6 6 5 6 6 5 5 6 6 6 6 6 6 6 6 6 6 6 5 5 6 6 5 4 4 4 4 4 4 4 4 3 3 3
7 6 7 6 7 6 7 6 6 5 5 6 6 4 5 5 5 6 5 6 6 6 6 6 5 5 4 5 6 6 5 5 4 4 4 4 4 4 4 4 4 4
7 7 8 8 9 7 7 6 6 6 5 6 5 5 5 5 5 5 5 6 7 7 6 6 6 5 5 5 4 4 5 5 5 4 5 5 5 5 5 4 4 5
7 8 8 8 8 7 7 7 6 6 6 5 6 6 5 6 6 6 6 7 7 7 7 7 6 6 6 6 5 5 5 5 5 5 5 5 5 5 5 4 4 5
7 8 7 7 6 5 4 5 6 6 6 6 6 6 6 6 6 6 6 7 7 7 7 7 7 6 6 6 5 5 5 5 5 5 5 5 5 5 5 5 5 5
6 5 4 4 4 4 4 4 4 5 4 3 3 6 7 7 7 7 7 6 7 7 7 7 6 6 6 6 5 6 6 6 6 6 6 6 5 5 5 5 6 6
5 4 5 5 5 4 4 5 4 3 3 3 2 2 3 5 6 7 6 6 6 6 6 6 6 7 6 6 7 7 6 7 7 7 7 7 6 6 6 6 5 6
3 3 4 4 5 6 6 5 4 3 2 2 2 1 1 2 3 4 5 6 6 6 6 6 6 5 8 12 11 8 7 7 6 7 7 7 7 6 6 6 6 6
1 3 3 4 5 5 5 6 5 4 4 3 2 2 1 1 2 4 5 6 7 7 7 7 6 7 12 13 14 15 9 6 7 6 5 6 6 6 7 7 6 6
5 2 1 2 2 3 4 5 5 5 4 4 3 3 2 2 2 3 4 5 6 6 6 7 7 9 12 13 13 14 11 8 6 6 6 6 7 7 7 7 7 6
3 3 3 1 0 0 1 1 3 3 4 3 4 2 1 3 3 3 3 3 5 6 6 7 7 10 11 11 11 12 12 10 6 6 6 7 7 7 7 7 6 6
5 3 2 1 2 3 2 3 3 2 1 1 2 2 1 1 1 1 1 1 1 1 3 4 6 7 10 12 12 13 13 10 7 7 7 7 7 7 6 7 6 6
4 4 5 6 7 6 5 5 4 4 5 5 4 3 2 1 1 1 1 2 2 2 2 2 3 9 8 6 8 10 10 8 6 6 6 6 7 6 7 7 7 7
6 6 6 5 5 6 6 5 5 6 6 6 6 6 6 4 3 2 2 2 1 2 1 0 1 5 4 3 2 2 5 5 5 6 7 7 8 7 7 6 6 7
4 5 6 7 6 5 5 5 5 6 7 7 9 8 7 7 6 4 2 1 0 1 2 0 0 2 4 4 3 4 3 2 3 4 5 6 7 6 5 5 5 5
7 7 7 6 4 4 3 3 4 4 5 3 6 5 5 4 3 2 4 5 7 5 4 2 1 1 2 1 2 3 1 1 2 3 3 4 5 4 5 5 6 11
6 7 7 6 6 6 5 3 2 3 3 4 4 4 4 2 2 1 3 0 1 2 5 5 2 2 3 5 7 6 3 2 2 2 3 4 4 5 4 4 5 6
6 6 6 5 3 3 4 5 5 2 1 1 3 3 2 2 1 1 2 1 1 2 2 1 1 2 1 2 5 8 7 5 4 4 5 5 4 4 5 4 4 5
Wind_Direction
182 179 183 185 189 188 182 186 192 189 195 188 194 205 206 214 197 192 200 194 200 206 214 216 219 221 213 202 201 191 191 213 229 212 201 177 200 207 284 283 295 115
186 179 179 184 189 189 190 191 187 189 192 192 200 197 205 196 201 189 196 194 197 208 210 210 211 211 207 197 197 192 198 201 232 202 210 229 234 192 242 251 265 261
176 173 171 179 189 195 194 200 198 196 189 196 191 192 199 196 194 196 196 192 195 207 210 209 207 212 207 202 191 202 195 197 219 230 187 232 258 261 256 248 252 263
187 175 172 179 188 194 192 190 208 210 200 183 196 194 191 196 190 195 200 197 193 201 203 199 203 204 204 199 185 203 202 210 220 156 180 292 260 237 267 261 258 296
188 180 170 175 185 192 185 190 199 203 203 205 201 191 187 190 188 196 198 202 193 199 197 200 199 202 199 194 179 200 209 227 235 154 160 263 274 259 269 265 280 295
193 184 178 177 181 181 190 194 199 199 204 200 205 195 197 191 193 196 197 201 201 199 198 197 198 207 195 193 185 198 208 221 237 176 183 230 273 273 266 272 287 303
190 188 190 183 183 187 193 196 196 199 203 205 191 202 196 195 199 202 200 203 203 206 204 198 198 205 197 188 190 201 208 217 229 209 207 225 228 269 269 260 265 272
193 192 191 186 188 189 195 197 194 196 204 198 199 209 192 198 200 204 203 202 205 212 213 209 204 204 195 186 194 200 211 210 222 219 217 229 210 236 253 246 236 250
189 194 191 193 196 194 197 195 197 196 190 196 208 207 203 199 201 201 201 201 206 210 215 216 212 210 199 190 196 200 206 212 214 213 216 222 220 232 236 237 249 248
186 187 188 194 203 207 205 201 192 190 185 196 207 207 204 210 202 202 198 200 203 206 211 218 217 221 213 204 200 200 207 214 215 218 224 227 223 226 234 228 233 247
180 184 190 195 202 204 210 205 199 191 185 196 198 207 210 204 211 200 199 199 206 205 206 211 214 213 219 220 216 207 210 215 215 215 223 230 234 233 231 228 235 233
174 183 192 195 198 203 206 203 203 202 198 196 194 206 210 205 202 202 196 201 207 208 204 209 209 208 213 219 217 212 214 224 227 222 223 227 233 235 236 231 233 239
184 189 185 183 181 181 187 200 199 202 201 204 196 199 205 209 208 203 203 199 207 206 206 205 208 210 214 218 220 217 217 221 230 232 231 232 235 234 235 233 233 238
190 173 168 167 160 161 164 180 186 167 165 167 175 201 201 204 209 207 209 201 205 204 209 204 204 209 215 220 220 217 215 220 222 228 231 232 235 235 233 231 230 234
177 177 177 172 166 165 175 180 194 198 179 161 141 172 212 217 210 207 208 212 213 207 208 206 205 211 210 212 218 224 217 221 219 222 225 230 233 235 232 232 233 233
180 178 182 186 181 184 190 190 187 196 191 153 144 158 191 210 216 222 215 212 214 215 210 206 213 216 220 216 213 214 215 220 221 223 225 229 234 240 246 238 235 233
208 196 185 197 208 202 194 187 185 181 185 188 184 168 154 147 179 206 218 216 213 214 214 215 219 221 222 219 221 222 218 215 216 223 219 227 231 233 243 246 246 239
351 341 254 237 229 227 214 202 185 176 179 182 180 182 196 141 147 197 216 220 216 212 214 218 225 229 224 222 223 225 222 221 214 217 214 217 224 228 236 240 245 246
97 68 4 15 53 77 188 179 173 171 171 168 185 203 150 177 178 157 181 201 209 208 214 217 223 227 225 223 223 224 224 226 232 223 222 224 223 227 233 238 242 247
37 26 80 23 30 53 53 73 85 89 107 130 124 102 90 49 26 16 8 7 11 272 251 242 227 235 224 221 220 220 219 211 230 231 231 232 230 229 231 235 236 239
33 47 30 18 6 360 30 34 33 39 43 34 44 53 66 80 96 67 49 49 36 55 36 8 33 30 8 320 253 237 235 214 233 236 241 242 237 229 228 229 231 230
37 29 29 40 42 29 2 23 26 36 37 27 30 20 11 9 10 48 77 103 175 148 137 185 83 51 34 28 5 272 212 198 218 231 239 248 250 247 245 241 238 235
52 65 48 33 29 39 28 18 16 25 43 44 49 30 25 25 29 19 335 305 303 68 80 17 84 66 46 26 68 122 138 193 212 230 243 254 259 266 268 266 260 250
31 36 42 29 12 7 18 45 39 29 46 54 86 81 72 58 46 321 308 337 355 2 9 24 81 150 154 198 176 186 254 225 229 222 254 254 273 274 269 267 261 259
40 47 54 39 15 354 336 345 64 82 60 57 52 73 77 100 119 255 268 332 351 312 22 44 35 336 322 315 327 316 304 295 298 294 290 288 292 296 301 295 298 302
28 34 36 36 22 7 3 8 3 14 25 100 96 93 75 347 311 296 304 352 66 24 15 32 334 334 53 250 280 291 301 315 325 322 292 290 296 289 298 303 303 303